Location: Unspecified
(0.0000°N, 0.0000°E)
Time: 17:46:19
(UTC+00:00)

Transit 2A Rocket - All Passes

Search period start: 18 June 2019 00:00
Search period end: 28 June 2019 00:00
Orbit: 586 x 917 km, 66.7° (Epoch: 17 June)

Date Brightness Start Highest point End Pass type
(mag) Time Alt. Az. Time Alt. Az. Time Alt. Az.
18 Jun - 09:42:48 10° SSW 09:48:36 72° WNW 09:54:40 10° NNE daylight
18 Jun - 20:34:03 10° NNE 20:36:54 16° ENE 20:39:38 10° ESE visible
18 Jun - 22:15:56 10° WNW 22:19:10 20° WSW 22:22:18 10° SSW night (unlit)
19 Jun - 09:00:27 10° S 09:06:09 58° ESE 09:12:07 10° NNE daylight
19 Jun - 10:46:54 10° W 10:48:41 11° WNW 10:50:28 10° NW daylight
19 Jun - 21:32:27 10° NW 21:36:46 46° WSW 21:40:53 10° S visible
20 Jun - 08:18:44 10° SSE 08:23:43 29° ESE 08:28:53 10° NE daylight
20 Jun - 10:01:32 10° WSW 10:06:08 23° WNW 10:10:50 10° NNW daylight
20 Jun - 20:49:52 10° NNW 20:54:21 69° ENE 20:58:37 10° SSE visible
21 Jun - 07:38:09 10° SE 07:41:17 15° ESE 07:44:28 10° ENE daylight
21 Jun - 09:18:03 10° SW 09:23:37 46° WNW 09:29:25 10° N daylight
21 Jun - 20:08:01 10° N 20:11:53 28° ENE 20:15:35 10° SE visible
21 Jun - 21:52:55 10° W 21:54:05 11° WSW 21:55:14 10° SW night (unlit)
22 Jun - 08:35:17 10° SSW 08:41:09 89° NW 08:47:15 10° NNE daylight
22 Jun - 19:27:38 10° NE 19:29:22 12° ENE 19:31:04 10° E visible
22 Jun - 21:07:58 10° NW 21:11:40 26° WSW 21:15:16 10° SSW visible
23 Jun - 07:53:09 10° S 07:58:42 46° ESE 08:04:29 10° NE daylight
23 Jun - 09:37:57 10° WSW 09:41:11 15° WNW 09:44:28 10° NW daylight
23 Jun - 20:24:51 10° NNW 20:29:16 64° WSW 20:33:30 10° SSE visible
24 Jun - 07:11:43 10° SSE 07:16:16 24° ESE 07:20:59 10° ENE daylight
24 Jun - 08:53:36 10° SW 08:58:38 29° WNW 09:03:51 10° N daylight
24 Jun - 19:42:30 10° N 19:46:50 50° ENE 19:50:59 10° SE visible
25 Jun - 06:32:06 10° SE 06:33:49 11° ESE 06:35:34 10° E daylight
25 Jun - 08:10:23 10° SSW 08:16:09 58° WNW 08:22:08 10° N daylight
25 Jun - 19:00:59 10° NNE 19:04:21 21° ENE 19:07:37 10° ESE visible
25 Jun - 20:44:06 10° WNW 20:46:35 15° WSW 20:49:02 10° SW visible
26 Jun - 07:27:50 10° SSW 07:33:41 73° ESE 07:39:46 10° NNE daylight
26 Jun - 20:00:09 10° NW 20:04:10 35° WSW 20:08:04 10° S visible
27 Jun - 06:45:54 10° S 06:51:15 37° ESE 06:56:47 10° NE daylight
27 Jun - 08:29:36 10° WSW 08:33:41 19° WNW 08:37:51 10° NNW daylight
27 Jun - 19:17:19 10° NNW 19:21:45 88° W 19:26:02 10° SSE visible
